Flag for Germany Weather past 2 weeks in Schorndorf, Baden-Württemberg, Germany

Now
78 °F

Scattered clouds.


Feels Like: 80 °F
Forecast: 62 / 73 °F
Wind: 2 mph from Southeast

Location: Stuttgart-Echterdingen

Current Time: Jul 7, 2015 at 11:15:07 AM

Latest Report: Jul 7, 2015 at 10:00 AM


Visibility: 22 mi

Pressure: 29.91 "Hg

Humidity: 58%

Dew point: 63 °F

Location of SchorndorfLocation

Historic Weather in Schorndorf — Graph

°F

Schorndorf temperature yesterday

Maximum temperature yesterday: 84 °F (at 12:00 AM)
Minimum temperature yesterday: 67 °F (at 7:00 AM)
Average temperature yesterday: 77 °F

Past Weeks' High & Low Weather Summary

 TemperatureHumidityPressure
High97 °F (Jul 5, 4:00 PM)97% (Jun 24, 7:00 AM)30.24 "Hg (Jun 24, 7:00 AM)
Low46 °F (Jun 24, 6:00 AM)23% (Jul 4, 6:00 PM)29.74 "Hg (Jun 22, 9:00 PM)
Average70 °F64%30.08 "Hg
* Reported Jun 22 9:00 AM — Jul 7 9:00 AM, Schorndorf, Weather by CustomWeather, © 2015

Note: Actual official high and low records may vary slightly from our data, if they occured in-between our weather recording intervals... More about our weather records

Advertising

Schorndorf weather history for previous 24 hours

 ConditionsComfort  
Time TempWeatherWind HumidityBarometerVisibility
9:00 AM
Tue, Jul 7
74 °FScattered clouds.1 mph65%29.94 "Hg22 mi
8:00 AM69 °FPassing clouds.1 mph68%29.97 "Hg22 mi
7:00 AM64 °FPassing clouds.1 mph81%29.99 "Hg22 mi
6:00 AM62 °FPassing clouds.1 mph79%30.00 "Hg22 mi
5:00 AM63 °FClear.1 mph76%30.01 "Hg25 mi
4:00 AM64 °FClear.1 mph75%30.01 "Hg31 mi
3:00 AM65 °FClear.1 mph72%30.03 "Hg31 mi
2:00 AM68 °FClear.No wind68%30.03 "Hg31 mi
1:00 AM68 °FClear.2 mph68%30.05 "Hg31 mi
12:00 AM71 °FClear.1 mph55%30.05 "Hg31 mi
10:00 PM
Mon, Jul 6
77 °FClear.2 mph50%30.05 "Hg31 mi
9:00 PM79 °FPassing clouds.2 mph47%30.04 "Hg34 mi
8:00 PM82 °FPassing clouds.3 mph43%30.03 "Hg34 mi
7:00 PM83 °FPassing clouds.3 mph41%30.03 "Hg34 mi
6:00 PM83 °FPassing clouds.5 mph41%30.04 "Hg34 mi
4:00 PM83 °FPassing clouds.3 mph42%30.07 "Hg31 mi
3:00 PM82 °FPassing clouds.3 mph43%30.09 "Hg31 mi
2:00 PM81 °FScattered clouds.3 mph45%30.11 "Hg31 mi
1:00 PM78 °FScattered clouds.2 mph50%30.13 "Hg31 mi
12:00 PM76 °FScattered clouds.2 mph55%30.16 "Hg31 mi
Weather by CustomWeather, © 2015

See weather overviewHow to use our weather pages